Date,TemperatureHighF,TemperatureAvgF,TemperatureLowF,DewpointHighF,DewpointAvgF,DewpointLowF,HumidityHigh,HumidityAvg,HumidityLow,PressureMaxIn,PressureMinIn,WindSpeedMaxMPH,WindSpeedAvgMPH,GustSpeedMaxMPH,PrecipitationSumIn
2013-1-1,46,43,39,41,33,24,81,69,50,30.12,29.99,0,-999,0,0.44
2013-1-2,45,41,39,39,35,32,82,78,75,30.15,29.95,0,-999,0,0.07
2013-1-3,40,37,29,34,31,22,82,78,72,30.30,30.11,0,-999,0,0.00
2013-1-4,42,32,25,28,22,18,77,67,51,30.36,30.24,0,-999,0,0.00
2013-1-5,45,34,24,27,22,16,73,61,41,30.38,30.23,0,-999,0,0.00
2013-1-6,49,38,32,37,29,24,75,69,60,30.23,30.07,0,-999,0,0.01
2013-1-7,48,37,29,30,24,21,74,61,44,30.41,30.21,0,-999,0,0.00
2013-1-8,50,38,28,39,29,20,77,70,59,30.45,30.35,0,-999,0,0.00
2013-1-9,53,49,42,48,44,35,86,83,77,30.52,30.40,0,-999,0,0.00
2013-1-10,61,52,44,51,45,40,85,78,66,30.55,30.39,0,-999,0,0.05
2013-1-11,56,51,48,52,47,43,89,85,79,30.39,30.19,0,-999,0,0.94
2013-1-12,66,59,56,60,55,52,89,85,78,30.24,30.17,0,-999,0,0.02
2013-1-13,63,59,56,56,54,52,86,82,75,30.20,30.12,0,-999,0,0.13
2013-1-14,60,58,48,57,54,43,89,87,84,30.22,30.11,0,-999,0,1.38
2013-1-15,52,49,46,49,45,42,88,86,84,30.20,30.07,0,-999,0,1.95
2013-1-16,54,50,45,51,47,42,89,87,85,30.07,29.99,0,-999,0,0.50
2013-1-17,52,45,33,49,41,28,88,86,80,30.22,29.80,0,-999,0,2.29
2013-1-18,45,36,28,28,24,21,81,64,41,30.50,30.22,0,-999,0,0.00
2013-1-19,49,38,27,32,26,21,76,63,43,30.48,30.18,0,-999,0,0.00
2013-1-20,55,40,30,35,28,22,71,60,44,30.18,30.08,0,-999,0,0.00
2013-1-21,52,39,30,32,24,16,74,57,36,30.13,29.99,0,-999,0,0.00
2013-1-22,35,30,23,18,10,5,55,44,30,30.22,30.01,0,-999,0,0.00
2013-1-23,42,30,20,20,14,7,65,51,40,30.30,30.07,0,-999,0,0.00
2013-1-24,47,34,25,25,16,7,74,50,30,30.42,30.00,0,-999,0,0.00
2013-1-25,33,27,23,27,16,5,80,63,44,30.43,30.05,0,-999,0,0.04
2013-1-26,41,34,30,32,28,24,79,76,69,30.34,30.10,0,-999,0,0.02
2013-1-27,44,35,27,33,26,20,79,71,60,30.50,30.34,0,-999,0,0.00
2013-1-28,57,46,36,46,38,27,81,72,64,30.44,30.27,0,-999,0,0.00
2013-1-29,66,53,42,52,46,36,84,75,59,30.29,30.07,0,-999,0,0.17
2013-1-30,60,56,44,56,52,38,88,85,78,30.08,29.54,0,-999,0,3.52
2013-1-31,44,37,32,38,25,20,81,61,44,30.02,29.59,0,-999,0,0.01
2013-2-1,38,32,23,25,15,9,62,49,36,30.32,29.93,0,-999,0,0.00
2013-2-2,40,30,21,28,18,10,81,61,36,30.32,30.01,0,-999,0,0.00
2013-2-3,47,36,30,32,24,18,79,61,41,30.03,29.89,0,-999,0,0.02
2013-2-4,47,36,25,28,21,16,68,55,38,30.12,29.99,0,-999,0,0.00
2013-2-5,55,43,32,39,27,21,66,53,35,30.04,29.93,0,-999,0,0.00
2013-2-6,57,43,32,35,27,23,73,55,34,30.25,30.04,0,-999,0,0.00
2013-2-7,43,40,37,36,30,23,79,65,53,30.27,30.01,0,-999,0,0.44
2013-2-8,49,42,32,42,34,24,82,74,57,30.15,29.94,0,-999,0,0.01
2013-2-9,54,40,27,31,23,19,75,53,27,30.34,30.12,0,-999,0,0.00
2013-2-10,50,42,35,37,28,21,79,57,38,30.41,30.18,0,-999,0,0.69
2013-2-11,55,48,41,50,42,33,85,78,60,30.19,30.03,0,-999,0,0.30
2013-2-12,52,44,36,35,32,27,75,62,42,30.14,29.97,0,-999,0,0.12
2013-2-13,48,41,33,41,34,25,83,75,64,29.97,29.66,0,-999,0,0.10
2013-2-14,50,38,28,34,27,22,78,64,46,30.07,29.90,0,-999,0,0.00
2013-2-15,57,43,30,36,28,22,74,57,35,30.11,29.97,0,-999,0,0.00
2013-2-16,38,32,23,27,21,10,72,62,55,30.00,29.85,0,-999,0,0.08
2013-2-17,37,29,21,16,11,7,56,47,33,30.23,29.99,0,-999,0,0.01
2013-2-18,50,36,23,26,18,11,64,50,36,30.34,30.18,0,-999,0,0.00
2013-2-19,50,39,32,40,26,13,81,59,41,30.18,29.89,0,-999,0,0.15
2013-2-20,47,36,27,18,14,10,53,41,28,30.13,30.04,0,-999,0,0.06
2013-2-21,57,41,25,31,20,13,67,45,25,30.24,30.08,0,-999,0,0.40
2013-2-22,40,38,36,35,32,29,81,77,68,30.26,30.09,0,-999,0,0.58
2013-2-23,51,44,38,46,40,33,85,82,80,30.10,29.86,0,-999,0,0.31
2013-2-24,54,45,34,42,33,24,83,65,43,30.08,29.89,0,-999,0,0.00
2013-2-25,44,37,32,27,25,23,73,61,47,30.16,30.02,0,-999,0,0.06
2013-2-26,39,36,33,34,30,26,84,80,71,30.04,29.57,0,-999,0,2.22
2013-2-27,52,42,32,36,31,27,82,66,41,29.81,29.65,0,-999,0,0.00
2013-2-28,47,38,32,28,24,20,64,56,43,29.90,29.74,0,-999,0,0.00
2013-3-1,39,35,30,26,23,21,70,62,57,29.92,29.87,0,-999,0,0.00
2013-3-2,42,35,28,29,23,16,74,62,48,29.93,29.84,0,-999,0,0.04
2013-3-3,39,30,23,19,15,12,66,54,41,29.99,29.89,0,-999,0,0.00
2013-3-4,50,36,21,21,17,11,66,48,30,30.12,29.97,0,-999,0,0.00
2013-3-5,47,42,35,42,32,21,82,68,51,30.07,29.66,0,-999,0,0.70
2013-3-6,42,34,28,26,22,18,69,61,51,30.13,29.68,0,-999,0,0.00
2013-3-7,47,35,26,30,23,18,74,63,50,30.27,30.11,0,-999,0,0.00
2013-3-8,54,38,25,27,20,16,73,51,29,30.32,30.23,0,-999,0,0.00
2013-3-9,59,44,28,30,24,16,60,45,29,30.35,30.25,0,-999,0,0.00
2013-3-10,63,50,38,35,30,25,60,46,31,30.31,30.20,0,-999,0,0.00
2013-3-11,52,50,47,47,42,30,83,75,52,30.22,29.88,0,-999,0,1.14
2013-3-12,56,48,36,46,38,27,84,70,54,30.07,29.80,0,-999,0,0.26
2013-3-13,53,40,30,30,22,16,72,52,30,30.16,30.03,0,-999,0,0.00
2013-3-14,48,36,25,18,16,12,60,45,29,30.27,30.15,0,-999,0,0.00
2013-3-15,66,45,28,36,26,15,60,48,28,30.21,29.98,0,-999,0,0.00
2013-3-16,74,62,49,45,40,34,59,45,31,30.00,29.84,0,-999,0,0.00
2013-3-17,73,60,50,47,42,38,64,52,35,30.07,29.93,0,-999,0,0.00
2013-3-18,56,43,40,39,36,33,81,74,61,30.10,29.88,0,-999,0,0.52
2013-3-19,60,47,37,38,30,19,84,55,26,30.11,29.88,0,-999,0,0.01
2013-3-20,54,42,33,22,16,13,57,36,19,30.12,29.84,0,-999,0,0.00
2013-3-21,43,33,25,23,15,11,64,48,33,29.93,29.78,0,-999,0,0.02
2013-3-22,49,36,25,22,17,11,58,46,33,30.03,29.92,0,-999,0,0.00
2013-3-23,56,45,37,40,32,22,69,60,50,30.03,29.90,0,-999,0,0.00
2013-3-24,46,43,40,38,36,35,82,77,68,29.95,29.54,0,-999,0,0.96
2013-3-25,44,37,32,35,23,17,82,57,43,29.89,29.54,0,-999,0,0.00
2013-3-26,42,35,28,22,19,16,62,53,42,30.18,29.88,0,-999,0,0.00
2013-3-27,50,39,28,25,21,17,62,49,31,30.26,30.16,0,-999,0,0.00
2013-3-28,57,40,26,26,19,15,67,45,22,30.31,30.20,0,-999,0,0.00
2013-3-29,58,42,28,34,24,15,69,49,27,30.35,30.25,0,-999,0,0.01
2013-3-30,61,50,40,44,36,32,78,61,41,30.27,30.10,0,-999,0,0.07
2013-3-31,64,54,47,52,45,36,82,72,53,30.11,29.89,0,-999,0,0.35
2013-4-1,68,56,44,47,39,30,81,56,33,30.03,29.90,0,-999,0,0.01
2013-4-2,58,48,35,30,26,22,68,45,29,30.18,30.02,0,-999,0,0.00
2013-4-3,61,49,40,27,22,17,42,34,25,30.28,30.15,0,-999,0,0.00
2013-4-4,47,40,37,32,29,25,77,66,44,30.28,29.97,0,-999,0,0.54
2013-4-5,58,46,38,43,35,30,81,67,42,30.12,29.92,0,-999,0,0.00
2013-4-6,66,50,36,37,32,27,70,52,31,30.25,30.10,0,-999,0,0.00
2013-4-7,68,56,43,42,37,30,63,48,37,30.25,30.16,0,-999,0,0.00
2013-4-8,73,58,45,50,43,36,71,57,41,30.21,30.15,0,-999,0,0.00
2013-4-9,79,63,50,54,48,42,73,59,40,30.28,30.19,0,-999,0,0.00
2013-4-10,82,67,54,56,50,45,72,56,38,30.22,30.06,0,-999,0,0.00
2013-4-11,74,65,58,59,52,48,82,63,45,30.07,29.79,0,-999,0,1.02
2013-4-12,72,62,49,58,47,36,86,61,28,29.94,29.71,0,-999,0,1.01
2013-4-13,70,56,42,42,35,32,67,48,27,30.12,29.92,0,-999,0,0.00
2013-4-14,68,55,43,45,38,32,71,53,33,30.16,30.05,0,-999,0,0.13
2013-4-15,63,57,52,54,49,45,80,76,69,30.28,30.04,0,-999,0,0.17
2013-4-16,73,63,56,58,53,50,82,69,54,30.36,30.27,0,-999,0,0.00
2013-4-17,77,62,56,60,54,49,82,75,52,30.35,30.22,0,-999,0,0.82
2013-4-18,70,63,56,57,54,51,84,71,52,30.22,30.03,0,-999,0,0.00
2013-4-19,65,60,45,59,54,38,86,82,71,30.04,29.83,0,-999,0,0.94
2013-4-20,60,47,36,38,31,27,76,54,31,30.31,30.00,0,-999,0,0.00
2013-4-21,59,48,35,34,30,26,71,52,35,30.46,30.31,0,-999,0,0.00
2013-4-22,62,51,41,39,35,32,70,55,37,30.44,30.25,0,-999,0,0.00
2013-4-23,69,54,38,42,36,28,67,52,36,30.32,30.15,0,-999,0,0.00
2013-4-24,68,58,47,53,46,38,77,64,51,30.20,30.10,0,-999,0,0.01
2013-4-25,67,55,42,49,34,27,75,48,26,30.38,30.15,0,-999,0,0.00
2013-4-26,66,54,38,38,32,27,64,45,29,30.46,30.36,0,-999,0,0.00
2013-4-27,56,52,51,47,43,38,80,71,51,30.44,30.30,0,-999,0,0.74
2013-4-28,52,50,49,47,45,43,84,82,79,30.31,30.10,0,-999,0,2.13
2013-4-29,69,59,51,57,50,46,85,74,58,30.12,30.01,0,-999,0,0.11
2013-4-30,69,60,50,56,50,44,81,69,55,30.25,30.06,0,-999,0,0.00
2013-5-1,63,58,55,51,49,48,76,70,61,30.35,30.25,0,-999,0,0.00
2013-5-2,59,56,54,53,49,47,82,79,73,30.35,30.29,0,-999,0,0.11
2013-5-3,56,54,52,49,48,46,83,79,72,30.30,30.15,0,-999,0,0.05
2013-5-4,52,49,47,47,43,39,84,80,74,30.15,30.02,0,-999,0,0.89
2013-5-5,49,48,46,45,44,42,86,85,84,30.05,29.87,0,-999,0,3.66
2013-5-6,60,52,46,47,44,39,87,73,55,29.97,29.84,0,-999,0,0.21
2013-5-7,64,52,41,49,42,36,81,69,48,30.02,29.92,0,-999,0,0.00
2013-5-8,63,56,48,53,48,42,80,74,67,30.13,29.99,0,-999,0,0.01
2013-5-9,71,60,48,57,50,42,81,70,54,30.20,30.10,0,-999,0,0.02
2013-5-10,74,63,53,56,52,47,80,67,51,30.20,30.06,0,-999,0,0.00
2013-5-11,70,63,55,58,54,49,79,72,57,30.08,29.92,0,-999,0,0.17
2013-5-12,65,56,48,52,42,32,80,59,36,30.14,29.98,0,-999,0,0.00
2013-5-13,64,51,40,34,31,28,68,47,27,30.25,30.13,0,-999,0,0.00
2013-5-14,68,55,39,47,38,29,68,53,35,30.30,30.17,0,-999,0,0.00
2013-5-15,82,66,52,58,50,44,74,59,38,30.20,30.09,0,-999,0,0.00
2013-5-16,74,65,55,57,51,46,72,61,44,30.17,30.08,0,-999,0,0.00
2013-5-17,75,66,56,60,54,49,77,65,47,30.22,30.13,0,-999,0,0.00
2013-5-18,65,63,60,60,56,51,82,78,66,30.22,30.16,0,-999,0,1.35
2013-5-19,73,66,62,64,59,57,85,79,70,30.21,30.12,0,-999,0,0.12
2013-5-20,76,66,61,64,59,56,84,77,62,30.23,30.16,0,-999,0,0.01
2013-5-21,78,66,58,67,58,53,84,76,59,30.18,30.08,0,-999,0,0.02
2013-5-22,79,67,60,66,59,54,83,75,57,30.14,30.01,0,-999,0,0.43
2013-5-23,72,65,60,64,57,52,84,75,60,30.07,29.97,0,-999,0,0.04
2013-5-24,69,60,51,52,44,36,74,57,38,30.31,30.02,0,-999,0,0.00
2013-5-25,72,58,45,44,39,35,70,51,32,30.39,30.27,0,-999,0,0.00
2013-5-26,70,59,51,51,45,37,73,59,44,30.37,30.27,0,-999,0,0.02
2013-5-27,76,64,52,56,51,45,77,62,45,30.35,30.26,0,-999,0,0.00
2013-5-28,78,68,59,61,55,51,75,63,48,30.32,30.27,0,-999,0,0.00
2013-5-29,80,69,60,61,56,52,77,64,47,30.35,30.28,0,-999,0,0.00
2013-5-30,77,68,60,61,56,52,79,66,53,30.39,30.29,0,-999,0,0.00
2013-5-31,78,69,62,60,57,54,80,65,51,30.34,30.24,0,-999,0,0.00
2013-6-1,78,70,65,62,58,55,79,66,53,30.25,30.15,0,-999,0,0.00
2013-6-2,73,67,64,66,61,58,84,81,70,30.19,30.04,0,-999,0,1.08
2013-6-3,74,67,62,66,61,57,85,79,69,30.10,29.99,0,-999,0,1.13
2013-6-4,75,67,59,63,58,53,82,73,60,30.21,30.08,0,-999,0,0.00
2013-6-5,75,69,65,64,61,59,81,75,64,30.22,30.08,0,-999,0,0.53
2013-6-6,73,68,63,65,61,58,84,79,73,30.11,29.91,0,-999,0,0.10
2013-6-7,75,68,64,66,62,59,85,80,70,29.96,29.80,0,-999,0,0.49
2013-6-8,76,69,62,65,61,58,84,76,59,30.22,29.96,0,-999,0,0.06
2013-6-9,78,68,63,68,62,57,85,80,66,30.27,30.17,0,-999,0,1.56
2013-6-10,71,68,64,65,62,60,87,81,67,30.17,30.03,0,-999,0,1.23
2013-6-11,79,70,63,65,61,58,84,73,54,30.16,30.07,0,-999,0,0.00
2013-6-12,83,72,62,70,63,56,81,73,56,30.18,30.09,0,-999,0,0.00
2013-6-13,86,72,64,66,62,58,81,70,45,30.09,29.88,0,-999,0,0.03
2013-6-14,78,68,59,60,54,50,77,61,44,30.18,29.95,0,-999,0,0.00
2013-6-15,77,66,55,60,54,47,75,65,52,30.26,30.18,0,-999,0,0.00
2013-6-16,80,70,60,63,58,52,76,66,53,30.27,30.16,0,-999,0,0.00
2013-6-17,76,71,68,67,63,61,81,76,70,30.18,30.08,0,-999,0,0.09
2013-6-18,77,70,64,66,63,58,84,78,64,30.10,29.95,0,-999,0,0.03
2013-6-19,76,68,61,63,59,54,81,72,62,30.25,30.05,0,-999,0,0.00
2013-6-20,76,68,62,63,59,55,81,72,59,30.36,30.24,0,-999,0,0.00
2013-6-21,76,67,61,62,58,55,81,72,56,30.40,30.31,0,-999,0,0.00
2013-6-22,78,68,60,61,56,53,79,65,45,30.38,30.25,0,-999,0,0.00
2013-6-23,78,69,61,64,60,54,77,71,60,30.35,30.26,0,-999,0,0.03
2013-6-24,79,71,65,68,63,59,83,75,61,30.36,30.24,0,-999,0,0.11
2013-6-25,80,69,63,68,62,57,84,78,62,30.29,30.18,0,-999,0,0.55
2013-6-26,80,71,62,70,63,57,85,77,65,30.20,30.07,0,-999,0,0.00
2013-6-27,81,72,65,70,65,60,85,77,66,30.11,29.90,0,-999,0,0.21
2013-6-28,83,72,65,70,64,59,83,74,56,29.97,29.78,0,-999,0,0.08
2013-6-29,80,70,62,67,60,57,82,70,44,29.85,29.79,0,-999,0,0.00
2013-6-30,81,70,60,63,58,54,78,67,47,29.95,29.83,0,-999,0,0.01
2013-7-1,77,70,65,66,62,59,82,74,60,30.09,29.93,0,-999,0,0.70
2013-7-2,78,70,65,67,62,59,84,76,61,30.26,30.08,0,-999,0,0.10
2013-7-3,72,68,62,67,62,58,85,83,77,30.35,30.22,0,-999,0,4.30
2013-7-4,70,65,62,66,61,58,89,87,85,30.35,30.28,0,-999,0,2.04
2013-7-5,74,68,65,65,63,61,90,84,72,30.37,30.29,0,-999,0,0.26
2013-7-6,74,69,66,67,64,62,89,85,76,30.34,30.25,0,-999,0,1.01
2013-7-7,75,71,68,68,66,65,90,84,77,30.30,30.22,0,-999,0,0.23
2013-7-8,77,71,67,70,66,64,88,84,74,30.34,30.26,0,-999,0,0.02
2013-7-9,80,73,67,71,67,64,88,80,65,30.32,30.21,0,-999,0,0.21
2013-7-10,79,71,68,73,67,64,87,85,78,30.28,30.11,0,-999,0,2.56
2013-7-11,75,70,66,69,66,63,90,87,82,30.12,30.02,0,-999,0,0.00
2013-7-12,79,70,65,70,65,60,89,82,68,30.14,30.02,0,-999,0,0.01
2013-7-13,71,67,64,66,62,59,88,84,82,30.24,30.13,0,-999,0,0.07
2013-7-14,70,68,66,67,65,63,90,89,87,30.42,30.23,0,-999,0,0.46
2013-7-15,76,70,64,69,65,61,92,84,73,30.47,30.40,0,-999,0,0.01
2013-7-16,82,73,67,74,66,63,89,79,61,30.48,30.40,0,-999,0,0.00
2013-7-17,82,72,66,72,66,62,86,81,65,30.44,30.32,0,-999,0,0.36
2013-7-18,81,72,65,72,66,61,87,79,64,30.37,30.23,0,-999,0,0.00
2013-7-19,82,73,66,70,65,61,84,77,59,30.28,30.15,0,-999,0,0.33
2013-7-20,79,71,68,72,66,63,87,83,74,30.20,30.09,0,-999,0,0.00
2013-7-21,81,71,67,71,66,63,87,83,70,30.16,30.10,0,-999,0,1.29
2013-7-22,79,71,65,71,65,61,88,82,71,30.15,29.99,0,-999,0,0.25
2013-7-23,78,71,63,69,64,59,87,79,67,30.05,29.94,0,-999,0,0.01
2013-7-24,80,71,65,69,63,60,86,77,63,30.01,29.93,0,-999,0,0.01
2013-7-25,78,68,63,68,62,58,85,78,64,30.18,29.99,0,-999,0,0.81
2013-7-26,77,69,61,68,62,57,87,80,66,30.22,30.15,0,-999,0,0.34
2013-7-27,76,71,67,70,65,62,88,81,70,30.19,30.03,0,-999,0,0.38
2013-7-28,78,71,65,68,63,60,86,76,58,30.17,30.04,0,-999,0,0.00
2013-7-29,77,68,61,64,60,56,84,74,58,30.32,30.16,0,-999,0,0.00
2013-7-30,76,68,59,67,61,53,82,76,67,30.36,30.28,0,-999,0,0.02
2013-7-31,72,69,67,68,64,62,87,84,80,30.31,30.10,0,-999,0,0.23
2013-8-1,76,70,66,70,65,61,87,84,75,30.12,30.04,0,-999,0,0.00
2013-8-2,76,69,62,67,63,58,88,81,71,30.19,30.08,0,-999,0,0.00
2013-8-3,78,71,66,68,64,61,87,79,65,30.19,30.12,0,-999,0,0.00
2013-8-4,79,70,64,68,63,58,86,76,64,30.19,30.11,0,-999,0,0.00
2013-8-5,77,70,62,65,61,56,82,74,63,30.21,30.12,0,-999,0,0.00
2013-8-6,77,72,69,68,66,64,85,79,68,30.19,30.09,0,-999,0,0.05
2013-8-7,71,69,68,68,66,65,89,87,83,30.21,30.15,0,-999,0,1.85
2013-8-8,77,71,67,71,67,64,91,87,78,30.20,30.15,0,-999,0,0.09
2013-8-9,78,72,68,71,67,64,90,84,76,30.24,30.17,0,-999,0,0.00
2013-8-10,78,71,68,72,67,64,90,86,79,30.28,30.21,0,-999,0,0.45
2013-8-11,78,70,65,72,67,62,91,88,78,30.30,30.22,0,-999,0,0.39
2013-8-12,78,70,66,72,67,63,92,88,75,30.26,30.13,0,-999,0,1.45
2013-8-13,76,70,66,71,67,63,95,89,81,30.14,29.98,0,-999,0,0.18
2013-8-14,72,66,62,64,60,56,88,81,70,30.20,30.04,0,-999,0,0.02
2013-8-15,65,62,60,58,56,54,84,80,73,30.27,30.18,0,-999,0,0.00
2013-8-16,68,62,58,59,55,52,84,78,70,30.29,30.20,0,-999,0,0.00
2013-8-17,65,62,60,58,56,54,85,80,74,30.30,30.24,0,-999,0,0.15
2013-8-18,72,66,62,66,61,58,89,85,78,30.34,30.25,0,-999,0,0.17
2013-8-19,71,66,64,65,63,60,89,87,82,30.33,30.22,0,-999,0,2.20
2013-8-20,73,68,65,68,65,62,92,88,81,30.34,30.24,0,-999,0,0.00
2013-8-21,71,68,66,68,65,63,93,91,88,30.38,30.28,0,-999,0,0.12
2013-8-22,75,69,63,70,65,60,92,87,78,30.32,30.20,0,-999,0,0.30
2013-8-23,77,68,62,69,64,58,91,84,74,30.23,30.13,0,-999,0,0.00
2013-8-24,73,67,62,63,60,55,88,78,65,30.44,30.22,0,-999,0,0.00
2013-8-25,72,64,56,60,56,50,83,74,61,30.51,30.40,0,-999,0,0.00
2013-8-26,74,65,56,63,57,51,85,75,62,30.47,30.28,0,-999,0,0.00
2013-8-27,77,67,58,66,60,53,85,78,65,30.30,30.18,0,-999,0,0.00
2013-8-28,79,71,63,69,64,59,85,78,69,30.21,30.12,0,-999,0,0.00
2013-8-29,79,72,66,71,66,61,86,81,73,30.15,30.08,0,-999,0,0.00
2013-8-30,74,71,69,70,66,65,88,85,80,30.20,30.10,0,-999,0,0.08
2013-8-31,77,71,66,70,66,62,88,85,76,30.12,30.04,0,-999,0,0.26
2013-9-1,79,71,65,71,66,62,90,84,74,30.07,29.97,0,-999,0,0.01
2013-9-2,77,70,64,70,65,60,89,83,75,30.08,29.99,0,-999,0,0.05
2013-9-3,76,68,63,68,62,58,88,81,74,30.15,30.01,0,-999,0,0.07
2013-9-4,76,68,60,66,62,56,87,80,70,30.26,30.14,0,-999,0,0.00
2013-9-5,76,68,62,66,61,56,87,77,60,30.29,30.22,0,-999,0,0.00
2013-9-6,74,65,57,61,57,51,83,75,63,30.33,30.22,0,-999,0,0.00
2013-9-7,75,66,59,64,60,54,86,78,65,30.27,30.15,0,-999,0,0.00
2013-9-8,74,67,61,67,62,57,86,81,74,30.17,30.10,0,-999,0,0.00
2013-9-9,76,69,62,67,62,57,86,80,69,30.30,30.17,0,-999,0,0.00
2013-9-10,78,70,62,67,62,58,87,78,64,30.40,30.29,0,-999,0,0.00
2013-9-11,77,68,61,68,62,56,86,81,71,30.38,30.26,0,-999,0,0.42
2013-9-12,75,68,63,70,64,59,89,84,78,30.25,30.03,0,-999,0,0.01
2013-9-13,72,65,58,62,58,50,87,76,61,30.04,29.95,0,-999,0,0.02
2013-9-14,68,60,51,56,51,45,81,72,59,30.24,30.03,0,-999,0,0.00
2013-9-15,71,62,55,58,54,49,83,75,62,30.32,30.23,0,-999,0,0.00
2013-9-16,74,64,56,63,57,50,84,76,66,30.29,30.22,0,-999,0,0.00
2013-9-17,66,63,61,59,54,52,79,73,63,30.41,30.29,0,-999,0,0.00
2013-9-18,65,61,57,56,54,51,81,76,69,30.38,30.27,0,-999,0,0.00
2013-9-19,72,65,61,64,59,55,83,80,72,30.31,30.21,0,-999,0,0.00
2013-9-20,74,66,59,65,60,54,86,79,69,30.22,30.07,0,-999,0,0.01
2013-9-21,66,63,58,62,59,55,89,86,81,30.07,29.82,0,-999,0,1.35
2013-9-22,66,60,53,58,53,49,88,80,68,30.03,29.86,0,-999,0,0.01
2013-9-23,68,61,55,57,54,50,84,77,66,30.16,30.03,0,-999,0,0.00
2013-9-24,67,62,56,59,56,52,85,80,72,30.17,30.04,0,-999,0,0.00
2013-9-25,63,61,58,58,56,55,87,86,83,30.05,29.97,0,-999,0,1.41
2013-9-26,65,60,57,60,56,52,87,85,81,30.16,29.99,0,-999,0,0.00
2013-9-27,66,59,50,58,53,45,86,80,71,30.29,30.16,0,-999,0,0.00
2013-9-28,65,60,55,55,53,50,84,79,70,30.35,30.25,0,-999,0,0.00
2013-9-29,65,59,52,55,52,47,82,76,67,30.29,30.13,0,-999,0,0.00
2013-9-30,66,60,54,56,53,49,85,78,69,30.20,30.11,0,-999,0,0.00
2013-10-1,69,61,53,59,54,48,85,79,69,30.27,30.17,0,-999,0,0.00
2013-10-2,70,62,54,60,55,49,86,78,66,30.29,30.21,0,-999,0,0.00
2013-10-3,70,64,57,60,57,52,84,78,69,30.27,30.20,0,-999,0,0.00
2013-10-4,72,64,56,62,57,51,84,78,68,30.30,30.22,0,-999,0,0.00
2013-10-5,73,64,56,63,58,52,85,78,68,30.28,30.18,0,-999,0,0.00
2013-10-6,71,65,58,62,58,54,86,78,66,30.20,30.02,0,-999,0,0.19
2013-10-7,64,60,52,60,55,46,86,83,78,30.12,29.93,0,-999,0,1.63
2013-10-8,61,54,47,50,47,42,84,76,65,30.30,30.11,0,-999,0,0.00
2013-10-9,63,54,46,52,46,40,80,73,62,30.31,30.20,0,-999,0,0.00
2013-10-10,65,55,45,54,48,39,82,76,65,30.23,30.12,0,-999,0,0.00
2013-10-11,67,58,49,54,49,43,81,73,53,30.14,30.06,0,-999,0,0.00
2013-10-12,68,60,53,58,53,47,83,77,68,30.21,30.10,0,-999,0,0.00
2013-10-13,68,62,58,59,56,53,84,80,71,30.33,30.21,0,-999,0,0.18
2013-10-14,64,61,58,59,56,53,86,84,79,30.34,30.25,0,-999,0,0.02
2013-10-15,63,59,56,56,54,51,86,82,75,30.30,30.15,0,-999,0,0.01
2013-10-16,64,58,52,56,52,48,86,81,74,30.18,30.06,0,-999,0,0.01
2013-10-17,63,60,58,59,57,54,89,87,83,30.08,29.96,0,-999,0,0.06
2013-10-18,63,57,51,55,50,46,86,78,66,30.12,30.02,0,-999,0,0.00
2013-10-19,60,55,48,51,48,42,85,77,64,30.06,29.93,0,-999,0,0.00
2013-10-20,59,49,40,45,40,34,81,72,57,30.16,30.02,0,-999,0,0.00
2013-10-21,60,51,41,49,43,36,80,75,65,30.20,30.08,0,-999,0,0.00
2013-10-22,62,56,51,52,49,46,83,78,68,30.10,29.89,0,-999,0,0.00
2013-10-23,56,48,37,46,36,27,81,65,44,30.08,29.82,0,-999,0,0.00
2013-10-24,52,43,34,37,31,26,73,64,55,30.21,30.08,0,-999,0,0.00
2013-10-25,46,40,33,34,27,23,72,61,45,30.38,30.21,0,-999,0,0.00
2013-10-26,51,40,28,34,29,21,74,64,48,30.37,30.11,0,-999,0,0.00
2013-10-27,59,50,41,47,40,33,76,69,59,30.20,30.11,0,-999,0,0.00
2013-10-28,58,53,48,51,47,42,84,79,75,30.33,30.18,0,-999,0,0.07
2013-10-29,63,55,48,51,47,43,86,75,60,30.43,30.31,0,-999,0,0.00
2013-10-30,68,60,52,56,51,46,81,72,58,30.38,30.25,0,-999,0,0.00
2013-10-31,61,59,56,57,52,50,87,77,67,30.29,29.96,0,-999,0,0.11
2013-11-1,67,61,53,58,55,46,90,80,63,29.99,29.75,0,-999,0,0.15
2013-11-2,60,50,44,46,39,34,79,66,41,30.07,29.85,0,-999,0,0.00
2013-11-3,55,46,39,38,34,31,74,62,47,30.40,30.05,0,-999,0,0.00
2013-11-4,52,43,36,35,31,29,75,62,46,30.54,30.40,0,-999,0,0.00
2013-11-5,52,43,35,36,31,28,74,62,42,30.57,30.45,0,-999,0,0.00
2013-11-6,60,52,45,50,45,36,82,75,68,30.47,30.20,0,-999,0,0.03
2013-11-7,60,51,38,53,42,29,84,71,50,30.20,30.08,0,-999,0,0.01
2013-11-8,52,41,33,29,25,23,71,54,31,30.34,30.20,0,-999,0,0.00
2013-11-9,52,42,32,32,27,22,66,55,42,30.38,30.26,0,-999,0,0.00
2013-11-10,62,48,37,39,32,28,69,55,36,30.31,30.22,0,-999,0,0.00
2013-11-11,56,45,34,33,29,24,67,54,39,30.37,30.20,0,-999,0,0.00
2013-11-12,55,40,27,36,27,12,67,57,46,30.46,30.12,0,-999,0,0.00
2013-11-13,46,33,23,17,14,10,62,46,26,30.51,30.43,0,-999,0,0.00
2013-11-14,53,38,25,25,19,14,65,47,27,30.46,30.33,0,-999,0,0.00
2013-11-15,50,43,33,43,32,17,82,66,49,30.34,30.22,0,-999,0,0.25
2013-11-16,59,52,48,52,47,43,85,82,74,30.31,30.22,0,-999,0,0.04
2013-11-17,57,55,53,54,52,48,90,87,84,30.27,29.98,0,-999,0,0.62
2013-11-18,63,54,42,55,44,30,91,70,48,30.10,29.94,0,-999,0,0.08
2013-11-19,53,43,34,30,26,20,69,53,28,30.26,30.07,0,-999,0,0.00
2013-11-20,47,39,32,29,26,23,71,59,44,30.45,30.26,0,-999,0,0.00
2013-11-21,48,44,40,43,36,28,83,74,63,30.50,30.40,0,-999,0,0.29
2013-11-22,62,53,47,56,49,43,89,85,80,30.43,30.21,0,-999,0,0.06
2013-11-23,54,48,33,51,39,19,87,72,46,30.24,30.17,0,-999,0,0.00
2013-11-24,38,31,25,21,13,8,61,48,29,30.46,30.23,0,-999,0,0.00
2013-11-25,40,32,24,19,13,10,59,46,27,30.47,30.29,0,-999,0,0.00
2013-11-26,42,38,32,38,32,19,84,78,56,30.29,29.67,0,-999,0,3.42
2013-11-27,42,34,23,38,26,14,85,72,59,30.17,29.61,0,-999,0,0.11
2013-11-28,44,30,20,24,19,12,74,62,40,30.45,30.17,0,-999,0,0.00
2013-11-29,50,36,27,29,23,19,74,61,40,30.58,30.44,0,-999,0,0.00
2013-11-30,44,34,28,26,22,20,71,61,45,30.60,30.35,0,-999,0,0.00
2013-12-1,54,39,28,38,28,20,73,65,51,30.35,30.04,0,-999,0,0.00
2013-12-2,52,42,32,40,33,26,78,71,60,30.04,29.83,0,-999,0,0.00
2013-12-3,52,48,44,46,42,37,84,80,75,29.99,29.88,0,-999,0,0.00
2013-12-4,60,53,49,54,49,44,90,85,75,30.12,29.98,0,-999,0,0.01
2013-12-5,63,59,56,60,56,53,93,89,83,30.15,30.07,0,-999,0,0.84
2013-12-6,64,62,53,61,59,50,93,90,86,30.14,30.03,0,-999,0,1.34
2013-12-7,53,48,42,49,42,38,87,79,69,30.40,30.10,0,-999,0,0.02
2013-12-8,43,38,36,38,34,32,86,83,80,30.39,30.22,0,-999,0,0.71
2013-12-9,53,46,38,51,44,34,91,89,86,30.22,30.06,0,-999,0,1.01
2013-12-10,50,42,29,47,36,22,91,79,60,30.32,29.93,0,-999,0,0.26
2013-12-11,46,34,25,29,24,19,79,68,49,30.43,30.30,0,-999,0,0.00
2013-12-12,39,32,26,24,20,16,72,61,44,30.40,30.29,0,-999,0,0.00
2013-12-13,45,34,23,25,20,14,70,58,41,30.36,30.24,0,-999,0,0.00
2013-12-14,42,38,36,38,31,24,86,75,61,30.26,29.79,0,-999,0,1.04
2013-12-15,46,38,28,39,31,22,86,74,57,30.12,29.78,0,-999,0,0.00
2013-12-16,50,37,26,34,26,20,80,66,43,30.18,30.10,0,-999,0,0.00
2013-12-17,56,43,32,37,28,21,75,56,36,30.16,29.98,0,-999,0,0.00
2013-12-18,44,35,28,22,19,16,64,51,36,30.30,30.09,0,-999,0,0.00
2013-12-19,56,42,29,31,24,17,63,48,33,30.32,30.22,0,-999,0,0.00
2013-12-20,58,48,40,42,32,24,73,54,36,30.25,30.16,0,-999,0,0.00
2013-12-21,62,56,51,59,51,42,92,84,73,30.19,30.02,0,-999,0,0.75
2013-12-22,62,58,55,59,55,52,92,90,88,30.13,30.01,0,-999,0,3.66
2013-12-23,55,48,34,52,44,30,91,86,80,30.22,30.07,0,-999,0,0.25
2013-12-24,38,32,24,30,24,16,83,72,57,30.39,30.20,0,-999,0,0.00
2013-12-25,37,28,21,22,18,14,76,65,50,30.45,30.32,0,-999,0,0.00
2013-12-26,46,32,23,27,21,16,74,63,48,30.36,30.25,0,-999,0,0.00
2013-12-27,47,35,26,30,24,19,76,64,46,30.45,30.34,0,-999,0,0.00
2013-12-28,41,35,27,34,27,19,81,72,63,30.42,30.11,0,-999,0,0.39
2013-12-29,51,41,36,45,36,32,86,83,78,30.11,29.84,0,-999,0,0.96
2013-12-30,43,37,33,38,32,28,85,82,78,30.16,29.99,0,-999,0,0.01
2013-12-31,42,34,30,30,26,22,82,73,53,30.37,30.13,0,-999,0,0.00
2014-1-1,42,34,28,28,24,21,75,67,52,30.37,30.13,0,-999,0,0.00
2014-1-2,44,37,23,40,31,12,85,78,62,30.13,29.68,0,-999,0,0.09